Theta_e
312 312 312 312 312 311 310 310 310 310 309 309 309 309 310 311 312 313 315 315 314 314 315 315 316 316 318 319 321 322 323 324 325 325 326 327 327 327 327 328 328 328
310 311 311 311 311 310 309 308 308 308 308 308 308 309 310 311 311 312 313 312 312 312 313 313 314 314 314 315 317 318 318 319 321 322 323 324 325 326 326 327 327 327
309 309 310 310 309 307 307 306 306 306 306 307 307 307 308 309 310 311 311 311 311 311 311 312 312 312 312 312 313 313 314 314 315 317 319 321 322 323 324 325 326 327
307 308 308 308 307 305 305 305 304 304 305 305 305 305 305 306 308 309 310 309 308 308 309 309 309 309 309 309 310 310 311 311 311 312 315 317 319 320 321 322 324 325
307 307 307 306 305 305 304 304 304 304 303 303 303 303 303 303 304 305 306 306 305 304 305 305 305 305 305 306 306 307 308 310 310 310 311 313 315 316 317 319 321 323
306 306 306 306 305 305 305 304 304 303 303 302 302 302 301 302 302 302 303 303 302 300 300 301 301 302 302 303 304 304 306 307 307 307 307 308 310 312 313 314 316 318
307 307 307 306 306 305 305 305 304 304 303 302 301 301 301 301 300 300 301 301 300 299 298 299 299 299 300 301 302 303 303 303 302 302 301 302 304 307 309 309 309 311
307 306 306 306 306 306 306 305 305 304 303 302 301 300 300 300 300 300 300 300 299 298 298 298 298 298 298 299 299 300 300 299 298 298 298 299 300 301 304 305 305 306
305 305 305 305 305 305 305 305 305 304 303 303 301 300 300 299 299 299 300 299 299 298 297 297 297 297 297 297 297 297 297 296 296 297 298 299 299 300 302 303 304 305
304 303 303 303 303 303 303 303 303 302 302 301 301 300 300 299 299 298 298 299 298 298 297 297 297 297 297 297 296 295 295 296 296 298 299 299 300 301 302 303 304 305
303 302 302 301 301 301 301 301 300 300 300 300 300 300 299 299 298 298 298 298 297 297 297 296 296 296 296 297 297 295 295 296 296 298 299 299 300 301 302 303 304 305
303 302 302 301 300 300 299 299 299 299 299 299 299 299 299 298 298 297 297 297 297 296 296 296 295 296 296 297 297 296 295 296 296 297 298 299 300 300 301 302 304 305
302 302 302 302 301 300 300 299 300 299 299 299 298 298 298 298 297 297 297 296 296 296 296 295 295 295 295 296 297 296 295 296 296 297 298 298 299 300 300 301 302 302
302 302 302 302 301 300 300 300 300 299 299 298 298 298 298 298 297 297 297 296 296 296 296 295 295 295 295 296 296 296 295 295 296 297 297 298 298 299 299 300 300 300
301 301 301 302 301 300 300 300 299 299 299 298 298 298 297 297 297 296 296 296 296 296 295 295 295 295 295 295 296 296 295 295 296 296 297 297 297 297 298 298 299 299
300 300 301 301 301 300 299 299 299 298 298 297 297 297 297 296 296 296 295 295 295 295 295 295 295 295 295 295 295 295 295 295 295 296 296 297 297 296 297 297 298 297
299 300 301 301 300 300 299 298 297 296 296 296 296 296 296 296 295 295 295 295 295 295 295 295 295 295 295 295 295 295 295 295 295 295 296 296 296 296 296 296 296 296
299 299 299 300 300 299 298 296 295 295 295 295 295 295 295 295 295 295 295 295 295 295 295 295 295 295 295 295 295 295 294 294 294 294 295 295 295 295 295 295 295 295
297 297 297 297 297 296 296 295 295 295 295 294 294 294 294 294 295 295 294 294 295 295 295 294 294 295 295 295 294 294 294 294 294 294 294 294 295 295 295 294 294 294
295 295 295 295 295 295 295 294 294 294 294 294 293 293 293 294 294 294 294 294 294 294 294 294 294 294 295 295 294 294 294 294 294 294 294 294 294 294 294 294 294 294
295 295 295 295 295 295 294 294 294 294 293 293 292 292 293 293 293 293 293 294 294 294 294 294 294 294 295 294 294 294 294 294 294 293 293 293 293 293 294 293 293 293
295 295 295 295 295 295 294 294 294 293 293 293 292 292 292 292 292 293 293 293 293 293 294 294 294 295 295 294 294 294 293 293 293 293 293 293 293 293 293 293 293 293
295 295 295 295 295 294 294 294 293 293 293 292 292 292 291 292 292 292 292 292 292 293 293 294 294 295 295 294 294 294 293 293 292 292 292 292 292 292 292 292 292 293
296 296 295 295 295 294 294 294 293 293 293 292 292 292 291 291 291 291 291 292 292 293 293 294 294 295 294 294 294 294 293 293 292 292 292 292 292 292 292 292 292 292
296 296 296 295 295 295 294 294 294 293 293 293 292 292 292 291 291 291 292 292 293 294 294 294 295 295 295 294 294 294 293 293 292 292 292 292 292 292 292 291 291 291
296 296 295 295 295 295 294 294 294 293 293 293 292 292 292 291 291 292 292 293 294 294 295 294 295 295 295 295 295 294 293 292 292 292 292 292 292 291 291 291 291 291
Wind_Speed
16 15 15 15 15 15 14 14 14 14 14 14 14 15 15 15 16 15 14 15 17 18 19 20 20 20 20 18 18 18 16 14 14 14 15 17 20 21 21 22 22 22
17 15 15 15 15 14 14 14 14 14 15 15 15 15 15 15 14 13 13 14 17 19 19 20 21 21 22 20 19 19 19 18 16 15 14 14 16 18 20 22 23 23
17 16 16 15 15 15 15 15 17 18 17 17 17 17 17 17 16 14 13 14 17 19 19 21 22 22 23 22 21 21 21 21 20 19 18 17 16 17 18 20 22 23
19 18 17 16 17 18 19 20 21 22 21 21 20 19 19 18 17 15 14 15 18 19 19 20 22 23 24 24 24 23 23 22 22 22 20 20 19 19 19 19 20 22
21 20 19 19 20 21 22 22 23 24 24 24 23 23 22 21 20 18 16 17 20 22 22 22 24 25 25 26 26 26 25 24 24 24 23 22 21 20 20 20 20 21
21 20 18 18 19 21 22 22 23 24 24 25 25 25 25 25 23 20 18 18 20 25 27 27 27 28 29 29 28 27 26 25 25 24 24 24 24 22 21 21 20 20
17 16 16 15 15 17 19 21 22 23 24 24 25 25 26 26 25 22 20 18 20 26 29 29 30 31 31 32 30 28 27 26 25 25 24 24 24 24 24 23 21 20
15 15 15 15 14 14 15 16 19 21 22 23 24 25 25 26 26 23 20 19 21 26 29 31 31 32 33 34 33 30 28 27 25 24 24 24 25 26 26 25 23 22
17 16 16 16 16 16 15 15 15 17 19 20 22 23 24 25 25 24 21 19 21 25 29 31 31 32 33 35 33 29 27 26 24 23 24 25 26 27 27 26 25 24
19 19 19 19 19 18 18 17 17 17 18 19 19 21 23 24 24 23 22 21 21 25 29 31 31 32 33 35 34 29 25 24 23 23 25 25 26 28 26 25 27 28
21 21 21 21 21 20 20 20 20 20 20 20 20 21 22 23 23 23 23 23 23 25 28 30 31 32 33 35 35 31 26 24 22 22 25 25 25 26 25 24 27 29
18 19 19 20 21 22 22 22 22 21 21 21 21 22 22 23 24 24 24 24 24 25 27 30 31 32 33 34 35 34 31 28 23 21 24 25 24 25 25 25 26 27
17 16 16 17 18 20 21 21 21 20 21 21 22 23 23 24 24 24 24 24 24 25 27 30 32 33 34 35 35 34 33 30 24 20 23 24 24 25 25 25 25 25
15 15 15 15 15 17 19 20 20 20 20 22 22 23 23 23 24 24 24 25 25 25 27 30 33 35 36 36 36 34 32 31 26 22 22 24 24 25 26 25 25 25
16 16 15 15 15 17 19 19 19 18 19 20 22 22 22 23 23 24 25 25 26 26 27 30 33 35 36 36 35 34 32 31 28 23 22 24 25 27 27 25 26 26
18 18 17 17 17 18 19 19 19 18 19 20 21 21 22 23 23 24 25 25 26 27 27 29 32 34 35 35 35 34 32 31 29 25 23 24 26 28 28 26 26 27
20 20 20 19 18 18 18 19 19 20 20 20 21 21 21 22 23 24 25 25 25 26 26 28 31 33 34 35 36 35 33 30 29 28 26 26 27 29 28 26 26 28
20 20 21 20 18 17 17 19 20 21 22 22 21 21 20 20 21 22 23 24 25 25 26 27 30 32 33 34 36 35 34 32 30 29 29 27 27 29 29 26 26 27
21 22 22 21 20 20 20 21 21 22 22 22 22 21 20 19 19 20 21 22 23 25 25 26 29 31 33 34 35 36 34 33 31 30 30 29 28 29 28 26 26 27
26 26 25 24 23 22 22 22 22 21 21 21 21 21 21 20 19 19 20 21 22 24 25 27 29 31 32 33 35 36 35 34 32 31 31 30 29 28 27 25 25 27
26 26 25 24 23 23 24 23 22 22 21 21 22 22 21 20 20 20 21 22 22 23 25 27 29 30 30 32 35 36 35 34 33 32 31 30 30 29 26 24 25 27
24 23 23 22 22 23 24 24 23 23 22 23 24 24 23 22 21 21 21 21 22 23 24 26 28 28 29 31 34 36 36 35 33 32 31 30 30 29 26 25 26 27
21 21 21 20 20 21 22 22 23 23 23 24 25 25 25 24 23 22 22 21 22 23 25 26 28 27 27 29 33 36 36 35 34 32 31 31 30 29 28 28 27 27
19 19 18 18 18 19 20 21 22 23 23 24 24 24 24 24 25 25 24 24 23 24 26 27 27 26 26 28 31 34 36 35 34 33 31 30 30 29 28 29 29 29
18 18 17 17 17 17 18 20 21 22 22 23 24 24 24 25 27 28 27 27 26 26 27 28 27 25 24 26 29 32 34 35 35 34 32 31 30 29 29 31 31 32
17 17 17 17 17 18 18 19 20 21 22 24 25 25 26 27 29 29 29 28 28 27 27 28 26 24 23 25 27 29 32 35 35 34 32 31 30 29 30 32 33 34
Wind_Direction
78 75 72 67 63 54 45 40 36 35 32 27 23 17 12 8 3 0 2 3 2 0 0 358 356 356 354 350 346 344 342 335 328 328 326 320 317 313 309 306 302 297
75 72 71 68 63 52 42 39 38 38 38 36 33 30 26 20 15 11 9 5 3 4 2 359 356 355 355 353 350 346 345 343 337 332 325 315 311 309 308 306 303 299
69 68 70 68 61 54 49 49 49 47 46 44 42 38 34 30 26 23 19 13 9 7 3 359 356 355 354 354 353 350 347 346 342 336 328 320 314 310 309 307 303 300
68 69 72 69 63 61 59 57 54 51 49 47 45 41 36 34 32 31 29 24 20 17 11 6 2 0 358 355 353 351 347 344 342 338 332 325 319 315 312 310 306 302
72 73 74 70 66 63 60 56 52 50 49 46 44 41 37 35 34 34 33 27 25 24 21 18 14 9 6 2 357 353 348 343 341 339 335 328 323 320 316 312 308 304
77 76 75 71 67 63 59 55 52 49 47 44 41 38 35 34 34 36 36 30 25 24 22 20 18 14 10 6 3 358 353 348 344 342 338 332 327 323 321 318 312 307
80 77 75 72 69 65 59 55 51 49 47 43 41 38 35 34 34 37 38 33 26 22 20 19 17 15 11 8 4 1 358 353 349 346 341 336 333 328 326 325 319 312
84 81 78 75 71 67 61 54 49 46 45 43 42 40 38 37 37 37 37 33 26 21 19 18 17 14 11 8 5 1 358 353 348 346 344 341 338 335 334 334 327 319
85 83 80 77 73 70 67 62 54 48 45 44 43 41 39 38 38 38 37 32 25 21 19 17 16 14 11 9 6 2 356 351 348 346 346 344 341 339 338 338 335 328
82 80 78 75 72 70 70 68 64 58 53 49 46 42 38 37 37 38 38 34 28 23 20 17 15 13 11 9 9 4 356 350 349 349 348 345 343 341 338 335 332 329
82 81 77 73 70 68 68 67 65 61 56 52 49 46 41 38 37 37 38 37 32 26 21 18 17 14 11 10 10 9 2 353 350 352 351 346 344 343 337 332 332 330
84 83 80 76 72 69 67 66 63 60 56 53 51 49 46 42 41 40 39 38 34 28 23 20 19 16 12 11 10 10 8 3 355 350 351 348 345 343 339 336 336 333
82 81 82 81 77 72 68 65 62 59 55 54 53 51 48 44 41 40 38 36 33 29 24 21 20 18 14 12 12 10 9 7 0 350 350 350 346 343 342 341 339 336
80 79 82 87 83 75 68 65 62 58 54 53 51 49 46 43 40 37 35 34 32 28 24 21 20 19 16 13 12 11 10 9 4 355 352 353 349 345 342 341 340 339
83 82 85 91 87 76 69 65 61 57 55 53 50 47 44 41 39 36 33 31 30 27 25 22 20 19 18 16 13 12 12 11 7 358 352 352 350 347 344 341 341 340
87 85 87 92 87 77 69 64 59 57 55 53 50 47 43 40 38 36 33 30 28 26 25 22 20 18 17 17 16 14 13 12 9 3 357 353 351 349 346 343 341 340
87 86 88 90 87 78 68 61 59 58 54 50 46 44 41 38 36 33 31 28 27 26 25 23 20 17 16 16 16 16 14 12 8 4 0 356 352 351 347 343 342 341
87 86 86 86 83 76 69 64 61 57 52 46 43 40 37 36 34 32 29 27 27 26 25 23 19 17 16 15 15 15 15 12 8 4 1 356 353 351 347 343 342 341
88 87 85 83 80 76 72 67 61 55 49 44 40 38 36 35 35 32 30 29 27 26 25 23 20 17 16 15 14 14 14 13 10 6 2 359 354 351 348 345 342 341
90 88 86 84 80 76 70 65 60 55 50 45 41 39 36 34 34 34 33 32 29 27 25 23 21 18 16 15 14 14 13 12 11 8 4 1 357 354 350 345 343 343
91 89 86 83 79 74 69 65 61 58 54 49 45 42 38 36 34 33 33 32 30 27 25 24 21 18 18 17 15 14 13 12 11 8 4 2 359 357 352 346 345 345
93 90 87 82 79 75 71 67 63 60 56 51 47 45 43 40 37 34 31 28 28 27 24 23 22 21 21 19 17 16 14 12 10 7 5 2 360 358 353 348 348 347
96 92 88 82 78 76 73 69 64 61 55 50 47 45 43 41 37 35 31 28 28 28 24 20 21 23 24 22 19 17 15 14 10 7 5 2 359 358 354 351 351 350
98 93 89 85 80 77 74 70 65 60 55 51 48 45 42 39 36 34 35 33 32 30 25 20 21 25 26 23 20 18 17 15 11 7 5 2 360 358 355 353 352 352
99 96 93 89 84 79 75 70 65 61 56 52 49 46 43 40 37 36 37 37 35 32 27 22 22 27 27 22 20 19 18 15 12 8 5 3 1 357 355 355 355 354
102 99 95 91 87 81 77 72 66 61 56 52 49 47 44 42 40 38 38 38 36 33 29 25 25 27 27 21 18 19 18 15 12 9 5 3 1 358 356 356 355 355